Location: Skalnate Pleso
(49.1889°N, 20.2450°E)
Time: 17:29:40
(UTC+01:00)

H-2A R/B - Pass Details

Date: 19 November 2019
Orbit: 530 x 652 km, 98.3° (Epoch: 06 December)

Event Time Altitude Azimuth Distance (km) Brightness Sun altitude
Rises 04:47:13 0° 8° (N) 2,987 6.1 -20.5°
Reaches altitude 10° 04:49:33 10° 0° (N) 2,073 5.2 -20.1°
Enters shadow 04:52:46 34° 322° (NW) 1,089 3.4 -19.6°
